Location: Unspecified
(0.0000°N, 0.0000°E)
Time: 21:06:44
(UTC+00:00)

deb Explorer IX - Visible Passes

Search period start: 16 September 2019 00:00
Search period end: 26 September 2019 00:00
Orbit: 543 x 1107 km, 38.8° (Epoch: 14 September)

Date Brightness Start Highest point End Pass type
(mag) Time Alt. Az. Time Alt. Az. Time Alt. Az.
19 Sep ? 20:47:40 10° SSW 20:48:01 11° SSW 20:48:01 11° SSW visible
20 Sep ? 20:25:30 10° SSW 20:27:44 20° SSW 20:27:44 20° SSW visible
21 Sep ? 20:03:21 10° SSW 20:07:32 32° S 20:07:32 32° S visible
22 Sep ? 19:41:13 10° SSW 19:47:26 45° SSE 19:47:26 45° SSE visible
23 Sep ? 19:19:05 10° SSW 19:26:09 48° SE 19:27:25 44° ESE visible
23 Sep ? 21:07:01 10° WSW 21:08:52 18° W 21:08:52 18° W visible
24 Sep ? 18:57:01 10° SSW 19:04:04 50° SE 19:07:30 29° E visible
24 Sep ? 20:44:56 10° WSW 20:48:56 28° W 20:48:56 28° W visible
25 Sep ? 18:34:56 10° SSW 18:41:59 51° SE 18:47:37 16° ENE visible
25 Sep ? 20:22:54 10° WSW 20:29:03 35° NW 20:29:03 35° NW visible
